Wind_Speed
5 6 6 7 9 10 11 12 12 12 12 12 12 12 12 12 12 13 13 15 17 19 21 24 25 25 24 23 21 19 18 16 16 16 17 17 17 16 14 14 15 16 14 12 10 9 9 9 10 10 10 11 12 12 12 12 11 11 11 11 11 11 12 12 12 12 12 12 12 12 11 11 11 11 11 11 12 12 13 13 13 13 13 14 14
4 4 5 6 9 10 11 12 12 12 12 12 12 12 12 12 12 13 14 15 17 19 21 23 24 25 24 23 21 19 17 16 16 16 17 18 17 15 14 14 15 15 14 12 10 9 9 9 9 10 11 11 12 12 12 12 11 11 10 10 10 11 11 12 12 12 12 12 12 12 12 12 11 11 11 11 11 12 12 13 13 13 14 14 14
3 3 3 5 8 9 10 10 10 11 11 11 11 12 12 12 13 13 14 15 17 19 21 23 24 24 23 22 21 19 17 15 15 16 17 18 17 14 13 13 15 15 14 13 11 9 9 9 9 10 11 11 12 12 12 12 11 11 10 10 10 10 11 11 12 12 12 13 13 13 12 12 12 12 12 12 12 12 12 12 13 13 13 14 14
2 2 3 5 7 8 8 9 9 10 10 11 11 12 12 13 14 15 15 16 17 19 21 23 24 24 23 22 20 19 16 15 15 16 17 18 16 14 13 14 15 15 15 13 12 10 9 9 10 10 11 11 12 12 12 12 11 11 10 10 10 11 11 12 12 12 13 13 13 13 13 12 12 12 12 12 13 12 12 13 13 13 13 13 13
2 2 1 4 6 7 7 8 9 9 10 11 12 13 14 15 16 16 17 17 18 19 21 23 24 24 23 21 20 18 16 14 15 16 17 18 16 14 13 14 15 15 15 14 13 11 10 10 10 10 11 12 13 13 12 12 11 11 11 11 11 12 12 13 13 13 14 14 14 13 12 12 12 12 12 13 12 12 12 13 14 14 14 13 13
2 2 1 3 5 5 7 8 9 10 11 13 13 14 16 17 18 18 18 18 19 20 22 23 24 24 23 21 19 17 15 14 15 16 17 17 16 14 13 14 15 15 15 15 13 12 10 10 11 11 12 13 13 14 13 12 12 12 12 13 12 13 13 13 14 14 15 15 14 14 13 12 12 13 13 13 13 12 12 13 14 14 13 13 13
2 2 2 3 3 4 6 8 9 11 13 14 15 16 18 19 20 20 20 20 20 21 23 24 24 23 22 21 19 16 14 13 14 15 16 16 15 13 13 14 15 15 15 15 14 12 11 11 11 12 13 14 15 15 14 13 13 13 13 13 13 13 13 14 14 15 15 15 15 15 14 14 13 13 13 13 13 13 13 13 14 14 14 13 13
3 1 1 2 3 4 6 8 10 12 15 16 18 20 21 22 22 22 22 22 22 23 24 24 24 23 22 20 18 15 13 12 13 14 15 15 14 13 13 13 14 15 15 15 14 13 12 11 12 13 14 15 15 15 15 13 13 14 13 13 13 13 13 14 14 15 15 15 15 15 15 14 14 14 13 13 13 14 14 14 14 14 14 14 14
5 3 1 1 3 4 5 8 11 14 16 18 20 22 24 24 24 24 24 23 23 23 24 24 24 22 21 19 17 14 12 11 12 13 13 13 13 12 12 13 14 14 15 15 15 14 13 12 13 13 14 14 15 15 15 13 13 14 14 13 13 14 14 14 15 15 15 14 14 14 14 14 14 14 14 14 14 15 15 15 15 15 16 15 15
5 3 1 2 4 5 6 9 12 16 18 19 22 24 26 27 26 26 26 25 24 24 24 24 23 21 19 18 15 13 10 10 11 12 12 12 11 11 11 12 13 13 13 14 14 14 13 13 13 14 14 15 15 15 14 13 12 13 14 14 14 14 14 15 15 15 15 14 14 14 14 14 14 15 15 15 16 16 16 16 16 16 16 16 16
3 1 1 4 5 7 8 10 14 17 19 21 23 25 27 29 28 28 28 27 26 25 24 24 23 20 18 16 14 12 9 8 9 11 11 11 10 10 10 11 11 12 12 13 13 13 13 13 14 14 15 15 15 14 14 13 12 13 14 14 14 14 15 15 15 15 15 15 14 14 14 14 14 14 15 15 16 16 16 16 16 17 17 16 16
1 2 3 5 7 8 10 12 15 18 20 22 24 25 28 29 30 29 29 28 28 26 25 24 22 20 17 15 13 11 8 7 8 10 10 10 9 9 9 9 10 10 11 12 12 12 12 13 13 14 14 14 13 13 13 12 12 13 13 14 14 14 14 15 15 15 16 16 16 15 15 15 15 15 15 15 15 15 15 16 16 17 17 17 17
5 5 6 7 9 11 12 14 17 19 21 23 24 25 27 30 31 31 30 29 29 28 26 25 23 20 17 14 11 10 7 6 7 9 10 9 8 8 8 8 9 10 10 11 11 12 12 12 13 13 13 12 12 12 11 11 12 12 13 14 14 14 14 14 15 15 16 16 17 17 16 16 16 15 15 15 14 15 15 15 16 16 16 17 16
12 12 12 13 14 15 16 17 19 21 22 23 25 25 27 30 32 32 31 30 29 29 27 26 23 20 17 13 10 9 7 6 6 8 9 8 8 8 7 8 8 9 10 11 11 11 11 12 13 13 13 13 12 11 11 11 12 12 13 13 14 14 14 14 15 16 16 17 17 17 16 16 16 16 15 15 15 14 14 15 15 15 16 16 16
18 18 18 18 19 20 20 22 22 23 24 24 25 26 27 29 32 33 32 30 29 28 27 26 24 21 17 13 10 9 7 6 6 7 8 8 7 7 7 7 8 8 9 10 10 11 11 12 13 14 14 14 13 12 12 11 12 12 13 13 13 13 13 14 16 17 17 17 17 16 16 15 15 15 15 15 15 14 14 14 14 15 16 16 16
22 22 21 22 23 23 23 24 24 24 24 24 25 26 27 29 32 33 31 29 28 27 26 25 23 20 17 12 10 9 8 7 6 7 7 7 7 7 7 7 7 7 8 9 10 10 10 12 13 14 14 14 14 14 14 13 13 13 13 13 12 12 13 14 15 16 16 17 17 16 16 15 14 14 15 15 14 14 14 14 15 15 16 16 16
24 24 24 25 26 25 25 25 24 24 24 24 26 26 27 29 32 32 30 28 26 25 24 24 22 19 16 12 10 9 8 7 6 7 7 7 7 7 7 7 6 6 7 7 8 9 9 11 12 13 13 13 14 14 15 15 14 14 14 14 13 13 13 14 15 15 15 15 16 16 16 15 14 14 14 14 14 14 14 15 15 15 15 16 16
24 25 27 27 27 26 25 26 25 24 24 25 26 27 27 29 32 31 28 26 24 23 23 23 21 19 15 12 10 10 9 8 7 7 7 7 7 7 7 6 6 6 6 6 7 8 9 10 11 12 12 12 13 13 14 15 15 15 15 14 14 14 14 14 14 14 14 15 15 16 16 15 15 15 14 14 14 14 15 15 15 16 16 15 15
24 26 28 28 27 26 26 26 25 25 25 26 27 28 28 29 31 30 26 24 22 22 22 22 22 19 15 12 10 10 9 8 8 7 7 7 6 6 6 6 5 5 5 5 6 7 8 9 10 10 10 11 11 12 13 13 14 14 14 14 15 15 15 14 14 14 14 14 15 15 15 15 15 15 14 14 15 15 15 15 16 16 16 16 15
26 27 29 29 28 27 27 27 27 27 27 28 29 29 28 30 31 29 24 23 21 21 22 23 23 19 16 13 11 11 10 9 8 8 8 7 6 6 6 5 5 4 4 5 5 6 7 8 9 10 10 9 10 11 12 12 13 13 13 14 15 16 16 15 14 14 14 14 15 15 15 15 15 14 14 13 14 14 14 15 15 16 16 16 15
29 29 30 30 29 28 28 28 28 28 29 29 30 29 29 30 31 28 23 22 21 20 22 23 23 21 16 14 12 11 10 10 9 9 8 7 6 6 6 5 5 4 4 4 5 5 7 8 9 9 9 9 9 9 10 11 12 12 13 14 14 15 15 15 15 15 15 15 15 15 15 15 14 13 13 12 13 13 14 15 14 14 15 14 14
31 31 31 30 29 30 30 30 30 30 30 30 30 29 29 30 31 28 23 22 20 20 21 23 24 22 18 15 14 12 11 11 10 9 9 7 6 6 6 6 5 5 4 4 5 5 6 8 8 9 9 9 8 8 9 10 10 11 12 13 14 14 15 15 15 15 15 15 16 16 16 15 14 13 13 12 12 13 14 14 13 13 13 13 13
33 32 31 30 30 31 31 31 31 31 31 31 30 29 29 31 31 28 23 22 20 20 21 23 24 23 19 16 14 13 12 12 11 10 9 8 7 6 6 6 6 6 5 5 5 6 7 8 9 9 9 9 9 9 9 9 10 11 11 12 13 14 14 14 14 14 14 15 16 17 17 17 16 15 14 13 13 13 14 14 13 13 13 13 13
33 32 31 30 31 32 32 32 32 31 31 31 30 29 30 31 31 28 23 22 20 20 20 22 24 23 20 16 15 14 13 13 12 11 10 9 7 6 6 7 7 7 6 6 6 7 7 9 10 10 11 10 10 10 10 10 11 11 12 12 13 13 13 13 13 13 13 13 14 15 16 17 16 16 16 15 14 14 14 13 12 12 13 13 13
33 31 30 31 32 32 32 33 33 32 32 31 30 29 30 32 31 28 24 22 20 20 20 21 23 23 20 17 15 14 13 13 12 12 10 10 8 7 7 7 8 8 8 8 8 8 9 9 11 12 12 12 12 11 12 12 13 13 13 13 13 13 13 12 12 12 12 12 13 14 14 15 16 16 16 15 15 15 14 13 12 12 13 13 13
32 31 31 32 33 33 33 33 33 33 32 31 30 30 31 32 31 28 25 22 20 20 20 21 22 21 19 16 15 14 13 14 13 12 11 10 9 8 7 8 8 9 9 9 10 10 10 11 12 13 13 13 13 13 13 14 14 14 13 13 12 12 12 12 12 11 11 11 12 12 13 14 15 15 15 15 15 14 14 13 12 12 12 13 13
33 32 33 33 34 34 34 34 34 33 32 31 31 31 32 33 31 28 26 23 21 21 20 20 21 20 17 15 14 14 14 14 14 13 12 12 10 9 9 9 9 10 10 10 11 11 11 11 12 13 14 14 14 13 13 14 15 14 13 13 12 12 12 12 11 10 10 11 11 12 12 13 14 14 14 15 15 15 14 13 12 12 12 12 13
33 33 33 34 34 34 34 34 33 32 32 32 32 32 33 33 31 29 27 24 22 21 20 19 20 18 16 15 14 14 14 15 14 14 13 13 12 11 11 11 11 12 12 11 12 13 13 13 12 13 14 14 14 14 14 14 14 14 14 13 12 11 12 12 11 10 10 10 11 11 11 12 13 14 14 15 15 15 15 14 13 13 13 12 13
32 33 33 33 34 34 34 34 34 33 33 33 33 34 35 34 31 30 29 26 23 21 20 19 19 17 15 14 14 14 15 16 15 15 15 14 13 12 13 12 12 13 13 13 13 14 14 14 14 13 14 14 14 14 15 15 14 14 13 12 12 12 12 12 11 10 10 10 10 10 11 11 13 13 14 15 15 16 16 15 14 14 14 14 14
32 33 34 34 34 35 35 35 34 33 34 34 35 35 35 34 32 32 31 27 23 21 20 19 19 17 15 14 14 15 16 17 17 16 16 15 14 14 14 14 14 15 15 14 13 14 15 15 14 13 13 13 13 14 15 15 14 14 13 12 12 12 12 12 11 11 10 10 10 10 11 12 12 13 14 15 16 16 17 17 17 16 15 15 15
34 35 35 35 35 36 36 36 36 35 35 36 36 36 35 34 33 32 31 29 25 23 22 20 19 18 15 14 14 15 17 17 18 17 17 16 15 15 15 15 16 16 16 15 14 14 15 14 13 13 13 13 13 14 15 15 15 14 13 13 13 12 12 12 12 11 11 11 11 12 12 13 14 14 15 15 16 17 18 18 18 18 17 17 17
38 38 38 37 37 37 37 37 38 37 37 37 37 37 35 33 33 32 32 30 26 25 23 20 19 18 16 14 14 16 18 18 18 18 17 16 15 16 16 16 17 17 16 15 15 15 15 14 13 13 13 14 14 14 15 15 15 14 13 13 13 12 12 12 12 12 12 12 13 13 14 14 15 16 16 16 16 17 17 18 19 20 20 20 19
42 41 40 39 39 38 39 39 39 38 38 38 37 35 33 33 33 32 32 30 27 26 23 20 20 19 17 15 15 17 19 19 19 19 18 17 16 17 17 17 18 18 17 16 16 16 15 13 13 14 15 15 14 14 14 14 14 13 12 12 12 12 12 13 13 13 13 14 14 14 15 15 16 17 17 17 17 17 18 18 19 20 21 22 22
44 43 43 41 40 40 40 40 39 38 37 35 34 33 32 32 33 33 32 30 28 26 23 20 20 20 18 16 16 18 19 20 20 19 19 18 18 18 18 18 19 19 17 16 17 17 16 15 15 16 17 16 15 14 13 13 13 12 12 11 12 12 13 14 14 14 14 14 15 15 15 16 17 18 18 19 19 19 19 19 19 20 21 22 23
44 44 43 41 39 40 41 40 38 35 33 32 32 31 31 32 34 34 32 29 28 26 23 20 20 20 18 17 17 18 20 21 20 20 20 19 19 19 19 19 19 19 18 17 18 18 17 17 17 18 18 16 15 14 12 12 12 12 12 12 13 13 14 14 14 14 14 15 15 15 16 17 18 19 20 20 21 22 22 22 22 22 23 23 24
43 43 40 38 38 41 41 38 35 32 31 30 29 29 29 31 33 33 31 29 28 26 23 21 22 21 19 18 17 18 20 21 20 21 21 20 20 20 20 20 20 20 19 18 18 18 18 18 19 20 18 15 13 13 12 12 11 11 11 12 13 13 13 14 14 15 15 15 15 16 17 18 19 20 21 22 23 24 25 25 25 25 26 26 26
41 38 36 36 38 40 38 33 31 30 29 28 26 26 26 27 29 30 30 29 28 27 24 23 22 22 20 18 18 19 21 21 21 22 22 20 20 21 21 21 21 21 19 18 18 18 19 19 20 20 17 14 13 13 13 12 12 11 11 12 12 13 13 14 15 15 15 16 17 17 18 19 20 21 23 24 25 25 26 27 27 27 27 26 26
34 32 34 37 38 36 32 29 29 29 28 27 25 25 24 24 27 28 28 28 28 26 24 23 22 22 20 19 19 21 22 22 22 23 22 21 21 22 22 22 22 21 19 19 19 19 19 20 20 19 16 14 13 13 13 13 13 12 11 12 12 13 13 14 15 16 16 17 18 19 20 20 21 23 24 25 26 27 27 28 28 28 27 26 26
29 31 35 36 35 32 29 29 30 29 28 27 25 23 23 24 26 27 27 27 26 24 22 22 22 22 21 20 21 22 23 23 23 23 22 21 22 24 23 23 22 21 20 19 19 19 19 20 20 19 17 15 13 13 13 14 14 13 12 13 14 14 15 16 17 17 18 18 20 20 21 22 24 25 26 26 27 27 27 28 28 28 27 26 26
28 32 34 33 31 30 30 31 30 29 27 26 24 22 22 24 26 27 27 27 26 24 24 23 22 22 21 20 22 23 24 24 24 23 22 21 24 24 24 22 22 21 20 19 19 19 20 20 20 19 18 16 15 14 14 13 14 14 14 14 15 16 16 17 18 18 19 20 21 22 23 25 26 27 27 28 28 28 27 27 27 27 27 27 27
29 32 31 29 29 30 31 31 31 29 27 26 24 22 22 23 25 26 27 29 28 28 28 27 25 23 21 22 23 23 24 25 24 23 22 23 24 24 23 22 22 21 20 20 20 20 20 20 21 21 19 18 16 15 14 14 14 15 15 15 16 17 17 18 19 19 20 22 23 24 25 26 27 28 29 28 28 27 27 27 27 27 28 29 29
29 30 28 27 29 30 31 32 32 30 27 26 24 23 23 24 25 26 28 30 31 31 31 30 27 24 23 24 24 24 24 25 24 23 23 24 24 24 23 23 23 21 21 20 20 20 20 21 21 21 20 18 16 15 15 15 15 16 16 17 17 18 19 19 20 21 22 23 24 25 26 28 29 29 29 29 28 27 27 27 27 28 29 30 31
28 27 26 27 30 31 33 35 34 31 28 25 24 24 25 26 27 28 29 31 31 32 32 30 28 26 25 26 26 25 25 25 24 24 24 24 24 23 23 23 22 21 21 20 20 20 21 21 21 20 18 17 16 15 15 16 17 17 17 18 18 18 19 19 20 21 22 23 25 27 28 29 30 30 29 29 29 29 29 29 29 29 30 31 32
26 26 26 28 30 34 37 35 32 28 25 23 23 24 26 28 29 28 28 29 30 31 31 30 29 27 27 28 27 27 27 26 25 24 24 24 23 23 23 23 22 21 21 20 20 21 21 21 20 18 17 17 16 16 16 17 18 18 18 19 19 19 19 19 20 22 24 26 28 30 30 31 31 31 30 30 31 31 31 31 32 32 33 34 34
25 27 28 30 34 38 34 26 24 24 23 24 24 25 27 29 29 28 28 27 29 29 30 30 29 28 30 30 29 29 29 27 26 25 24 24 23 23 22 22 22 22 21 20 21 21 21 21 20 19 18 18 17 17 17 18 18 19 19 20 20 20 21 22 24 25 27 29 30 31 33 33 33 33 32 32 32 33 33 33 34 34 35 36 36
27 29 31 32 36 34 23 18 21 23 24 24 25 26 29 30 30 30 29 28 27 28 30 32 30 30 31 31 30 30 31 29 27 26 25 24 23 22 22 21 22 22 22 21 21 21 21 21 20 20 19 19 19 18 18 18 19 19 20 20 20 21 22 24 25 26 28 29 31 32 33 34 34 34 34 33 33 33 34 34 36 37 37 37 37
29 31 32 33 34 29 22 23 25 24 25 25 25 26 28 30 31 31 29 28 28 29 31 32 31 32 31 31 31 32 32 31 29 27 25 24 23 22 22 22 22 22 22 21 21 21 21 21 20 20 20 21 20 19 19 19 19 20 20 20 20 21 22 24 26 27 29 30 31 33 34 34 34 34 34 35 35 34 34 35 37 38 38 38 38
30 31 32 31 32 29 24 25 25 23 24 23 23 25 25 28 29 27 26 26 26 29 31 32 32 32 31 31 33 33 33 33 30 28 25 23 22 22 22 22 22 22 21 21 21 21 21 21 21 21 22 22 21 20 19 19 19 20 20 21 21 22 23 25 26 27 29 31 32 34 35 36 36 36 36 36 36 36 36 37 37 38 38 39 39
31 31 31 31 33 29 22 21 22 23 22 19 19 22 23 24 25 23 24 25 25 27 30 32 32 31 32 33 32 32 34 33 30 27 24 23 21 21 21 21 21 21 21 21 21 21 21 21 21 22 22 22 21 20 19 19 20 20 21 22 22 23 24 26 27 29 30 32 33 34 35 36 37 38 38 38 38 38 38 38 39 39 40 40 40
31 31 30 31 32 27 19 19 21 23 23 21 23 25 24 23 23 23 24 26 27 28 30 32 31 31 33 32 31 32 33 30 26 24 23 22 21 20 20 20 20 21 21 22 22 22 21 21 22 22 22 21 20 20 20 21 21 22 23 24 24 25 26 28 29 30 32 33 34 35 35 36 37 37 38 38 38 38 39 40 40 41 41 41 41
31 30 30 29 28 24 20 20 20 22 24 26 29 28 25 25 25 24 25 26 27 28 29 29 29 30 31 30 30 32 31 27 23 22 22 21 20 19 19 19 20 21 21 22 22 22 21 21 22 22 22 21 21 21 21 22 24 25 25 26 27 28 29 30 31 32 33 33 34 35 36 36 37 37 37 36 36 37 38 39 40 40 40 40 40
Wind_Direction
12 11 6 4 358 360 1 359 1 1 2 7 9 10 16 19 21 22 23 23 20 18 17 16 15 14 13 14 14 11 10 9 5 3 1 358 357 359 0 2 3 4 3 360 356 355 359 3 7 7 9 10 8 5 3 1 359 357 355 355 355 355 353 350 347 344 342 339 336 333 330 327 324 321 318 317 315 313 312 311 311 312 313 314 313
2 9 1 0 355 357 360 359 359 355 356 359 1 2 8 13 15 18 18 18 16 15 14 13 13 12 12 13 13 10 9 7 4 1 359 356 356 358 0 2 3 5 5 3 358 354 356 359 3 5 7 7 5 3 1 0 359 358 357 357 357 356 353 350 347 343 340 337 333 330 328 327 326 325 324 323 321 320 319 318 317 317 318 318 318
341 353 357 356 352 355 359 359 356 351 352 356 357 357 360 4 8 11 12 12 10 10 11 10 11 11 11 12 12 9 7 5 2 359 357 356 356 358 360 2 4 5 6 5 1 356 355 356 358 0 3 3 1 0 359 359 359 360 1 1 0 357 355 351 348 344 341 337 333 329 326 326 328 329 329 329 327 325 324 323 322 321 320 319 318
315 334 355 352 352 359 360 358 356 350 352 355 355 354 354 357 0 3 4 4 3 3 5 6 7 10 11 11 11 8 5 3 0 358 356 356 356 358 359 2 5 6 8 6 3 358 356 355 356 356 356 358 358 357 356 358 359 360 2 3 2 360 357 354 351 348 346 342 338 333 328 326 327 328 330 332 331 331 330 329 327 325 323 320 319
276 301 350 342 350 1 0 355 356 355 355 357 355 352 352 352 354 356 357 356 356 355 357 1 3 7 9 9 10 7 3 1 359 357 356 357 358 359 360 3 6 8 9 7 4 360 356 354 353 352 352 353 353 354 355 355 357 359 1 3 2 0 358 356 354 352 351 348 345 341 336 333 331 332 334 335 336 336 337 336 333 330 328 326 325
235 263 301 325 348 2 0 354 355 358 357 357 355 352 350 350 350 351 350 348 348 347 350 355 359 4 8 7 8 5 2 360 357 356 356 358 360 359 0 3 7 8 9 7 5 0 357 353 350 349 348 349 351 353 353 353 355 358 360 1 0 359 359 358 357 355 355 354 352 351 348 344 342 340 340 339 339 341 344 343 339 335 334 334 333
200 250 276 305 339 359 359 354 355 358 357 357 354 352 350 349 348 346 345 343 343 343 344 350 355 1 5 5 5 4 2 359 356 355 356 359 1 0 0 4 7 8 8 7 5 2 358 353 350 348 347 348 350 351 352 352 354 356 357 358 358 357 358 359 359 359 358 357 357 357 356 353 350 347 344 342 342 345 348 347 343 339 340 341 340
138 144 255 299 327 351 356 351 353 355 354 356 355 353 351 349 346 343 341 339 339 340 341 345 351 357 2 4 2 2 1 358 354 352 356 358 1 1 1 4 7 7 8 7 6 3 358 354 350 349 348 348 349 350 351 350 352 353 354 355 356 355 357 359 360 0 359 359 359 359 359 357 354 351 349 348 346 347 347 346 343 341 341 343 343
136 124 113 307 321 338 347 347 350 351 351 353 355 355 353 350 346 342 339 337 337 338 338 341 347 353 359 1 359 360 360 356 351 349 353 357 0 1 1 4 7 7 7 7 6 3 359 354 350 348 347 348 349 350 350 348 349 350 351 352 352 354 356 357 358 358 358 358 359 358 356 354 353 351 350 349 347 346 344 343 341 341 340 341 342
155 140 125 308 314 323 332 339 344 347 347 349 351 353 353 351 346 341 337 335 334 334 335 337 342 349 357 359 356 357 357 353 348 345 350 356 359 1 1 4 7 7 7 7 5 3 359 354 350 348 348 349 349 349 347 345 346 347 348 348 348 351 353 354 355 355 355 355 355 354 352 349 348 347 346 345 345 343 342 341 340 340 339 339 339
177 189 284 303 306 313 321 330 336 341 344 346 347 349 349 348 345 341 336 333 332 331 332 334 337 345 353 356 353 353 353 348 342 340 345 352 357 360 0 2 6 6 6 6 4 2 358 354 350 349 348 347 347 347 345 342 343 345 345 345 345 347 349 350 351 351 350 350 350 348 346 345 344 344 343 343 342 340 340 339 339 338 337 337 336
262 290 296 298 301 306 315 322 327 334 339 342 343 345 345 345 342 338 335 332 330 329 329 330 334 341 349 352 348 346 345 339 335 335 340 347 354 357 357 358 2 3 3 3 2 0 357 354 351 349 347 344 343 343 342 340 339 342 343 343 344 345 346 347 348 349 348 347 345 343 341 340 340 341 341 340 339 338 337 337 337 337 336 336 335
292 298 297 297 297 301 308 315 322 327 333 337 339 341 342 341 339 336 333 331 330 327 326 327 330 338 344 347 343 338 334 325 324 328 334 342 350 352 353 353 357 359 359 359 359 358 357 354 351 348 344 340 339 340 339 337 336 339 342 342 343 344 346 348 348 347 346 344 341 338 337 337 337 337 337 337 336 336 335 335 336 336 335 335 334
281 289 292 295 295 298 303 310 318 323 328 333 336 338 338 338 337 334 330 329 328 326 324 324 328 336 340 341 337 329 320 309 310 321 329 336 345 347 346 348 351 355 355 354 355 356 356 355 352 347 341 338 336 336 337 335 334 336 339 342 343 343 347 349 349 346 344 342 338 336 335 335 335 335 335 335 335 334 334 334 335 335 335 334 333
276 283 289 293 296 299 303 308 314 319 324 329 333 335 335 335 334 331 328 326 325 323 322 321 326 334 335 335 329 318 306 294 298 315 326 331 340 342 339 342 345 349 351 350 350 353 356 356 352 346 340 336 333 333 334 334 332 333 336 340 341 343 347 349 347 345 343 341 339 338 337 336 336 336 337 336 335 334 333 334 336 337 337 336 334
272 279 287 291 294 299 303 307 311 315 321 325 329 331 331 332 331 329 326 324 323 321 321 320 325 330 329 328 321 307 294 283 289 309 321 324 333 337 334 335 339 342 343 344 345 349 354 355 352 346 340 334 330 329 329 330 330 331 335 337 339 343 346 347 345 344 343 341 340 341 341 341 340 341 341 341 338 335 335 336 338 338 337 335 333
270 277 284 288 291 297 301 305 309 312 316 321 325 328 328 328 328 326 324 324 321 320 321 320 323 324 322 321 312 299 286 276 282 301 313 316 325 334 333 330 332 333 333 336 338 343 349 351 349 345 339 333 329 327 326 326 327 330 333 334 336 339 342 344 344 343 344 344 343 343 345 346 345 345 346 346 341 339 338 337 338 337 335 332 331
272 278 282 285 289 294 298 303 306 309 313 317 321 324 324 324 325 324 322 323 321 319 320 318 317 316 315 313 304 293 281 271 276 293 302 309 320 330 333 330 327 325 322 325 329 337 343 345 345 342 338 332 328 324 323 323 325 328 330 331 331 333 336 340 343 345 348 347 346 345 346 348 348 348 350 348 343 341 339 338 339 336 332 330 331
275 277 280 283 288 293 297 301 303 306 310 314 318 321 320 320 323 322 320 322 320 317 317 314 311 310 310 307 298 288 276 265 269 283 293 303 315 325 332 332 327 319 313 314 320 329 336 340 339 336 334 330 326 322 321 320 322 325 326 326 326 327 330 336 342 347 351 350 348 347 348 349 350 350 351 349 344 342 341 342 342 335 330 331 335
275 276 278 282 288 293 296 298 300 304 307 312 316 317 315 316 320 319 317 320 317 315 314 310 307 305 305 301 292 284 270 259 262 276 286 297 309 319 329 333 329 319 307 305 310 319 328 333 331 329 328 326 323 320 318 317 318 320 321 321 321 322 324 331 339 347 351 351 348 348 350 350 350 349 350 349 345 342 343 345 342 335 333 335 336
273 275 278 283 289 292 294 296 298 302 305 309 312 312 311 313 318 316 313 314 314 313 311 306 303 301 301 296 286 279 265 252 256 269 280 289 301 312 323 330 330 323 311 302 302 311 320 324 323 321 320 318 316 315 312 312 312 313 315 316 317 318 320 327 337 345 349 349 348 349 352 353 351 348 347 347 345 343 346 350 345 338 338 338 336
271 274 279 284 288 290 291 294 296 300 303 306 308 307 307 311 316 314 308 307 309 309 307 303 300 298 298 291 281 276 261 247 249 262 273 281 292 302 315 323 328 329 321 309 302 305 310 313 314 314 311 307 305 304 302 302 304 306 310 312 315 315 318 325 335 341 346 347 348 350 352 353 353 349 347 347 346 345 349 354 351 344 340 338 337
269 273 279 283 285 287 289 292 295 298 301 303 304 303 305 310 313 310 302 300 303 304 302 301 297 294 295 287 277 274 260 244 245 256 266 272 281 294 306 315 323 331 328 320 310 303 302 303 305 307 303 298 295 293 292 293 295 299 305 309 313 314 316 323 331 337 342 345 348 349 351 352 352 351 349 349 349 347 350 355 351 346 342 340 341
268 273 278 280 282 284 287 290 292 295 297 299 300 300 303 307 309 305 297 295 297 299 299 298 294 292 293 285 276 274 259 243 243 253 261 264 270 284 298 310 319 327 329 325 317 306 300 300 301 302 300 295 291 289 288 289 291 294 299 304 309 311 314 320 327 333 340 345 348 348 349 351 352 352 351 352 351 347 348 351 348 346 346 347 348
268 272 274 276 279 282 285 287 289 292 294 295 296 297 301 305 305 300 292 291 294 296 296 294 292 291 291 284 275 272 256 240 242 253 257 257 265 277 290 303 314 318 321 321 317 311 306 303 303 302 301 298 293 289 288 287 287 290 295 298 303 307 312 317 322 329 338 345 348 348 348 350 352 353 354 354 352 348 347 348 346 345 346 347 349
266 268 270 273 276 280 282 284 286 288 290 291 292 295 298 301 301 296 290 290 292 293 294 293 291 290 289 281 276 271 251 237 241 252 254 254 262 271 282 295 304 306 309 312 314 312 310 306 305 303 301 299 296 292 288 286 286 288 291 293 296 301 307 313 318 324 334 342 345 346 347 348 350 352 354 355 352 349 350 350 347 343 342 343 345
262 265 268 271 274 277 279 281 283 285 286 287 289 293 296 297 296 292 288 287 289 290 291 292 290 287 284 277 276 269 246 233 240 249 250 252 260 266 276 287 292 294 297 305 309 308 306 304 302 300 299 298 296 293 291 289 290 291 293 294 294 298 303 308 313 319 328 335 339 342 343 343 345 348 351 351 350 348 350 353 349 343 341 340 339
261 264 266 268 271 274 276 278 279 282 283 284 287 291 293 294 291 288 286 285 287 288 289 290 287 282 277 273 274 264 241 230 237 245 247 250 256 263 271 279 284 287 291 300 304 303 300 298 295 294 295 296 296 296 296 294 294 296 297 296 296 300 303 306 309 315 323 328 331 333 333 335 338 342 344 344 343 344 345 347 346 343 341 340 338
260 262 263 264 267 270 272 274 276 278 280 282 286 289 291 290 287 284 284 283 284 285 285 285 283 277 270 270 271 259 239 230 235 241 244 248 254 261 269 275 280 283 287 295 299 299 298 295 292 291 293 296 298 300 300 298 296 296 297 296 298 302 304 305 307 310 314 316 317 320 324 328 331 334 336 336 336 337 337 338 339 340 338 337 336
257 258 259 261 264 266 269 271 274 275 278 281 285 287 287 286 283 282 281 280 280 282 281 282 280 272 265 268 268 254 238 232 235 239 241 245 252 259 267 274 277 278 283 290 295 298 296 293 290 289 292 296 299 301 300 299 297 298 299 299 299 301 301 301 302 302 302 304 307 312 318 322 324 327 330 331 331 331 332 332 333 334 332 331 331
255 256 257 259 261 264 267 270 272 274 277 281 285 285 284 282 280 279 278 276 277 277 278 280 277 269 261 264 265 251 237 234 236 239 241 243 249 258 265 270 272 275 280 287 293 296 293 289 288 290 293 296 299 300 299 298 298 299 298 297 297 297 296 297 297 297 297 300 305 310 315 318 321 324 326 328 329 329 330 329 329 329 327 326 325
254 255 257 259 262 264 267 269 272 275 279 283 285 283 281 279 278 277 274 273 273 274 276 277 275 267 258 260 260 248 237 234 236 239 241 243 248 257 264 268 270 273 278 284 290 290 288 286 290 295 296 294 296 298 296 294 292 292 292 292 293 293 294 295 295 296 298 302 306 309 313 317 319 322 324 326 327 328 328 328 328 327 325 324 323
254 257 259 261 264 266 269 271 274 278 282 284 284 281 280 278 276 274 271 269 269 271 274 274 272 264 255 256 256 245 238 235 236 238 240 242 248 256 262 267 269 271 274 279 282 283 283 283 288 296 297 292 289 290 288 285 283 284 287 289 291 294 295 295 295 296 298 300 303 307 311 315 317 319 322 324 326 326 327 327 327 326 324 322 321
256 258 261 263 266 269 271 273 277 280 282 282 280 278 277 276 274 271 267 265 265 268 271 271 268 262 254 254 253 245 238 236 236 237 238 241 247 254 262 265 267 269 271 273 275 278 279 279 282 290 293 286 279 279 280 280 281 284 288 291 294 296 295 294 295 296 296 298 302 306 309 311 314 316 319 321 323 324 324 325 324 322 321 320 319
255 258 261 264 267 268 270 272 275 277 276 274 272 271 272 272 271 269 264 262 263 266 269 267 264 259 252 251 251 244 238 237 237 238 238 241 246 254 260 263 265 265 266 268 271 275 277 277 279 286 289 281 273 275 278 282 284 288 293 295 295 295 294 294 295 294 294 295 300 304 306 308 311 314 315 317 318 319 320 321 321 319 318 318 317
255 257 261 263 263 264 267 270 272 271 269 268 268 268 270 272 270 268 265 263 265 267 268 264 259 254 248 249 249 242 238 238 239 240 240 242 246 253 259 261 262 262 263 266 270 273 275 275 278 284 285 277 273 277 282 286 286 287 291 292 291 292 293 294 294 294 294 297 300 302 304 307 310 313 314 314 313 313 315 316 317 318 317 317 316
254 257 259 259 259 262 267 270 269 266 265 266 267 267 271 273 270 268 266 265 266 267 265 260 254 248 244 247 246 240 237 237 239 241 242 244 247 253 257 258 259 261 262 266 270 271 272 274 277 282 281 274 275 281 284 286 283 282 286 288 289 290 290 291 292 294 296 299 301 301 304 307 309 310 310 311 310 310 311 311 312 313 314 313 313
252 253 253 255 258 263 267 266 263 262 263 264 265 265 270 274 270 267 265 265 265 264 262 258 253 247 243 243 243 238 236 236 238 240 243 245 248 253 255 257 258 260 263 266 268 270 271 274 278 281 278 271 274 281 283 283 281 280 285 289 288 287 286 287 289 293 296 298 299 300 301 304 306 306 307 308 308 308 308 308 308 308 308 308 308
247 246 249 253 258 262 264 261 260 262 263 263 264 265 269 271 268 264 263 262 262 260 260 259 254 247 244 243 241 238 236 235 237 239 242 245 249 252 254 257 259 261 264 266 268 269 272 276 279 281 278 272 272 277 279 281 282 283 286 288 286 284 284 285 287 290 293 296 297 298 299 301 302 303 304 304 305 305 306 306 306 305 304 304 304
242 244 248 252 257 260 259 258 259 261 262 263 264 265 266 267 266 262 259 257 256 257 260 263 259 250 246 244 243 240 237 235 236 238 240 243 247 251 254 257 260 262 264 266 267 268 272 276 278 277 277 274 272 273 276 279 283 284 283 284 283 282 281 282 285 289 292 294 296 298 299 300 301 301 301 301 302 303 303 304 303 303 303 302 303
239 244 247 250 253 253 251 252 254 257 259 259 259 261 261 263 262 259 255 252 252 256 259 261 258 251 246 245 244 242 238 235 236 237 239 242 246 250 255 259 260 261 263 264 266 268 272 276 276 274 275 274 271 272 276 279 282 283 281 279 279 279 279 281 285 289 293 294 295 297 299 300 300 301 301 301 301 302 301 301 301 301 301 301 301
236 242 245 245 245 245 246 248 250 252 254 255 256 257 256 257 259 258 255 250 247 250 253 253 252 248 244 244 245 244 239 237 236 236 238 241 246 251 256 258 259 261 262 264 267 271 275 277 276 273 273 271 269 273 277 279 280 282 283 282 281 281 282 285 289 291 293 294 295 296 298 299 300 301 301 300 299 299 299 299 299 300 301 301 302
235 240 241 240 241 243 244 245 246 248 250 252 255 256 255 257 259 260 259 251 245 245 246 246 246 245 243 243 245 245 241 238 238 238 239 242 246 251 256 258 260 261 262 265 269 274 277 277 275 272 270 268 268 273 277 279 280 281 284 286 286 286 287 289 291 292 292 292 293 294 296 299 301 302 302 301 301 301 301 301 301 302 303 304 303
234 237 238 238 241 244 244 245 249 254 257 260 260 260 260 260 260 261 262 254 246 245 245 243 242 242 242 242 244 245 242 239 238 239 242 244 248 252 256 258 261 262 263 266 271 274 276 276 272 268 268 269 270 273 275 279 282 283 285 287 288 288 289 289 289 289 289 290 293 295 298 301 304 305 305 305 306 306 306 306 305 305 305 305 304
232 236 238 239 242 245 246 253 262 266 269 269 266 264 263 262 261 260 258 251 244 245 243 239 238 240 241 241 242 243 241 238 237 239 242 245 248 251 254 258 260 263 264 267 271 273 274 274 270 267 268 272 273 274 275 279 284 287 288 289 290 291 291 291 290 290 290 292 296 299 301 305 307 308 309 309 309 308 307 306 306 305 305 305 304
232 236 238 240 246 250 253 262 268 266 264 263 261 261 263 264 262 257 250 242 239 241 238 235 233 236 239 239 240 241 240 237 236 238 241 244 247 249 253 257 260 262 264 267 270 271 272 272 269 266 268 273 275 275 277 281 286 289 291 292 294 296 297 296 296 297 298 299 302 303 304 306 307 307 307 307 307 306 305 305 305 305 305 305 304
234 238 242 245 251 257 257 257 261 261 260 258 253 251 258 263 263 258 247 237 235 236 233 230 229 233 238 239 238 239 238 237 235 236 238 242 245 248 252 256 258 261 265 267 268 268 270 270 268 266 269 274 276 277 280 283 286 288 290 292 295 297 299 300 301 303 303 304 305 306 306 306 305 304 304 306 307 306 305 305 305 305 305 306 305
237 241 245 249 254 256 254 254 258 263 264 261 250 246 254 262 264 259 246 238 239 239 235 230 229 232 238 239 237 238 237 236 234 234 236 240 243 248 252 255 258 262 265 266 267 268 269 268 266 267 271 275 277 279 282 284 285 287 289 292 295 297 298 299 301 302 303 303 304 305 305 306 306 306 306 307 308 307 306 305 306 306 305 305 304
239 243 245 249 253 255 257 259 262 266 266 262 254 253 259 263 265 259 245 240 242 241 238 234 232 234 237 238 237 236 235 235 235 234 234 238 242 247 251 255 258 262 264 265 267 268 268 266 265 267 272 276 277 279 282 284 286 287 289 291 294 296 297 297 298 299 301 302 303 304 305 306 307 308 309 309 309 308 308 308 307 307 305 304 302
241 243 245 248 254 258 264 265 265 266 263 263 266 267 267 263 259 254 248 246 245 242 240 239 238 236 234 236 235 234 234 235 236 236 235 236 239 244 249 253 258 261 263 265 267 267 267 266 265 269 273 275 276 279 281 283 284 285 288 290 292 293 294 295 296 299 301 303 304 305 305 305 305 306 307 307 307 307 308 308 308 307 306 305 303
242 244 246 251 258 263 265 264 265 263 258 262 268 268 267 261 255 252 251 249 246 244 242 239 236 232 231 231 230 230 233 235 235 236 237 237 237 242 248 254 258 261 264 266 267 267 267 268 269 272 275 276 276 278 280 282 283 285 288 290 292 293 294 295 298 300 303 304 304 304 304 304 304 305 304 303 303 305 306 306 306 305 305 304 304
Height
5898 5898 5898 5897 5897 5896 5895 5895 5895 5894 5893 5892 5892 5891 5891 5891 5891 5890 5890 5889 5889 5888 5888 5887 5886 5885 5884 5883 5881 5880 5879 5878 5878 5876 5875 5874 5873 5872 5871 5870 5869 5868 5867 5867 5866 5865 5865 5864 5864 5863 5862 5861 5861 5860 5860 5859 5859 5858 5857 5857 5856 5855 5855 5854 5854 5853 5852 5852 5851 5850 5850 5850 5849 5849 5848 5848 5847 5847 5847 5846 5846 5845 5845 5844 5843
5898 5898 5897 5897 5896 5896 5896 5895 5895 5894 5894 5893 5892 5891 5891 5891 5891 5890 5890 5889 5889 5888 5887 5887 5887 5886 5884 5883 5881 5880 5879 5879 5878 5877 5875 5874 5873 5871 5870 5869 5869 5868 5867 5867 5866 5865 5865 5864 5864 5863 5862 5861 5861 5860 5860 5859 5858 5858 5857 5856 5856 5855 5854 5854 5853 5852 5852 5851 5850 5850 5849 5849 5848 5848 5848 5847 5847 5846 5846 5845 5845 5844 5844 5843 5843
5898 5898 5897 5897 5896 5896 5896 5896 5895 5895 5894 5893 5892 5892 5891 5891 5891 5890 5890 5889 5889 5888 5887 5887 5887 5886 5885 5883 5881 5880 5880 5879 5878 5877 5875 5874 5873 5871 5870 5869 5869 5868 5867 5867 5866 5866 5865 5864 5864 5863 5862 5862 5861 5860 5860 5859 5858 5858 5857 5856 5856 5855 5854 5853 5853 5852 5851 5850 5850 5849 5849 5848 5848 5847 5847 5847 5846 5846 5845 5845 5844 5844 5843 5843 5842
5898 5897 5897 5896 5896 5896 5896 5896 5895 5895 5894 5893 5892 5892 5891 5891 5891 5890 5890 5889 5889 5888 5887 5887 5887 5886 5885 5883 5882 5880 5880 5879 5878 5877 5875 5874 5873 5871 5870 5869 5869 5868 5868 5867 5866 5866 5865 5865 5864 5863 5863 5862 5861 5861 5860 5859 5858 5858 5857 5856 5855 5855 5854 5853 5852 5851 5851 5850 5849 5848 5848 5847 5847 5847 5846 5846 5846 5845 5845 5844 5844 5843 5842 5842 5842
5897 5897 5897 5896 5896 5896 5896 5895 5895 5894 5894 5893 5892 5892 5891 5891 5890 5890 5890 5889 5889 5888 5887 5887 5887 5886 5885 5883 5882 5881 5880 5879 5878 5877 5875 5874 5873 5872 5870 5870 5869 5868 5868 5867 5866 5866 5865 5865 5864 5864 5863 5862 5862 5861 5860 5859 5859 5858 5857 5856 5855 5854 5854 5853 5852 5851 5850 5850 5849 5848 5847 5847 5847 5846 5846 5846 5845 5845 5844 5844 5843 5843 5842 5842 5841
5897 5897 5897 5896 5896 5896 5896 5895 5895 5895 5894 5893 5893 5892 5891 5891 5890 5890 5890 5889 5889 5888 5887 5887 5886 5886 5885 5883 5882 5881 5880 5879 5878 5877 5875 5874 5873 5872 5871 5870 5869 5868 5867 5867 5866 5866 5865 5865 5864 5864 5863 5863 5862 5861 5860 5860 5859 5858 5857 5856 5855 5854 5853 5853 5852 5851 5850 5849 5848 5848 5847 5846 5846 5846 5845 5845 5844 5844 5843 5843 5843 5842 5842 5841 5840
5896 5896 5896 5896 5896 5896 5896 5895 5895 5895 5894 5893 5893 5892 5891 5891 5890 5890 5890 5889 5888 5888 5887 5886 5886 5885 5885 5883 5882 5881 5880 5879 5878 5877 5875 5874 5873 5872 5871 5870 5869 5868 5867 5866 5866 5865 5865 5864 5864 5863 5863 5862 5862 5861 5860 5860 5859 5858 5857 5856 5855 5854 5854 5853 5852 5851 5850 5849 5848 5848 5847 5846 5846 5845 5844 5844 5843 5843 5842 5842 5841 5841 5841 5840 5839
5896 5896 5896 5896 5896 5896 5896 5895 5895 5895 5894 5893 5892 5892 5891 5891 5890 5890 5889 5889 5888 5887 5886 5885 5885 5885 5884 5883 5882 5882 5880 5879 5878 5877 5876 5874 5873 5872 5871 5870 5869 5868 5867 5866 5866 5865 5864 5864 5863 5863 5862 5862 5861 5861 5860 5859 5859 5858 5857 5856 5856 5855 5854 5853 5852 5851 5850 5849 5848 5847 5847 5846 5845 5844 5844 5843 5843 5842 5841 5841 5841 5840 5840 5839 5838
5895 5895 5895 5895 5895 5895 5895 5895 5895 5894 5893 5893 5892 5891 5891 5890 5890 5889 5888 5888 5887 5886 5885 5885 5884 5884 5884 5883 5882 5881 5880 5879 5878 5877 5876 5874 5873 5872 5871 5870 5869 5868 5867 5866 5865 5865 5864 5864 5863 5862 5862 5862 5861 5860 5860 5859 5859 5858 5857 5856 5856 5855 5854 5853 5852 5851 5850 5849 5848 5847 5846 5845 5845 5844 5843 5842 5842 5841 5841 5840 5840 5839 5838 5837 5837
5895 5895 5895 5895 5895 5895 5895 5895 5894 5894 5893 5892 5891 5891 5890 5890 5889 5888 5887 5886 5886 5885 5885 5884 5884 5884 5883 5882 5882 5881 5880 5879 5878 5877 5876 5874 5873 5872 5871 5870 5869 5868 5867 5866 5865 5865 5864 5863 5863 5862 5861 5861 5860 5860 5859 5859 5858 5858 5857 5856 5855 5854 5854 5853 5852 5851 5850 5849 5848 5847 5846 5845 5845 5844 5843 5842 5842 5841 5840 5840 5839 5838 5837 5836 5835
5894 5894 5895 5894 5894 5894 5894 5894 5894 5893 5892 5891 5891 5890 5889 5889 5888 5887 5886 5885 5885 5884 5884 5883 5883 5883 5882 5882 5881 5880 5880 5879 5878 5877 5875 5874 5873 5872 5871 5870 5869 5868 5867 5866 5865 5865 5864 5863 5862 5862 5861 5860 5860 5860 5859 5858 5858 5858 5857 5856 5855 5854 5854 5853 5852 5851 5850 5849 5848 5847 5847 5846 5845 5844 5843 5842 5842 5841 5840 5839 5838 5837 5836 5836 5835
5894 5894 5894 5894 5894 5894 5893 5893 5893 5892 5892 5891 5890 5889 5889 5888 5887 5886 5885 5885 5884 5883 5883 5882 5882 5882 5882 5881 5880 5880 5879 5878 5877 5876 5875 5874 5873 5872 5871 5870 5869 5868 5867 5866 5865 5865 5864 5863 5862 5862 5861 5860 5860 5859 5859 5858 5858 5858 5857 5856 5855 5855 5854 5853 5852 5851 5850 5849 5848 5847 5847 5846 5845 5844 5843 5842 5841 5841 5840 5839 5838 5837 5836 5835 5834
5894 5894 5894 5894 5893 5893 5893 5893 5893 5892 5891 5891 5890 5889 5888 5887 5886 5886 5885 5884 5883 5882 5882 5881 5881 5881 5881 5880 5880 5879 5878 5878 5877 5876 5875 5874 5873 5872 5871 5870 5869 5868 5867 5866 5865 5865 5864 5863 5863 5862 5861 5860 5860 5859 5859 5858 5858 5857 5857 5856 5856 5855 5854 5853 5852 5851 5850 5849 5849 5847 5846 5845 5844 5844 5843 5842 5841 5840 5839 5838 5837 5836 5835 5834 5833
5893 5893 5893 5893 5892 5892 5892 5892 5892 5892 5891 5890 5889 5888 5887 5887 5886 5885 5884 5883 5883 5881 5881 5880 5880 5881 5880 5880 5879 5878 5877 5877 5876 5876 5875 5874 5873 5872 5871 5870 5869 5868 5867 5866 5865 5865 5864 5863 5862 5862 5861 5860 5859 5859 5859 5858 5858 5857 5857 5856 5856 5855 5854 5853 5852 5851 5850 5850 5849 5847 5846 5845 5844 5843 5842 5841 5840 5840 5839 5838 5837 5836 5835 5834 5833
5892 5892 5892 5892 5891 5891 5891 5891 5891 5891 5890 5889 5888 5888 5887 5886 5885 5884 5884 5883 5882 5881 5880 5880 5880 5880 5880 5879 5878 5877 5876 5876 5875 5875 5875 5874 5873 5872 5870 5869 5869 5868 5867 5866 5865 5865 5864 5863 5862 5861 5860 5859 5858 5858 5858 5858 5857 5857 5857 5856 5855 5855 5853 5853 5852 5851 5850 5850 5848 5847 5846 5845 5843 5842 5841 5840 5839 5839 5838 5837 5836 5835 5834 5833 5832
5891 5891 5891 5890 5890 5890 5891 5891 5890 5890 5889 5888 5887 5887 5886 5886 5885 5884 5883 5882 5882 5880 5880 5879 5879 5879 5879 5878 5877 5876 5875 5875 5875 5875 5874 5874 5873 5871 5870 5869 5868 5867 5867 5866 5865 5864 5864 5863 5862 5861 5860 5859 5858 5857 5857 5857 5857 5856 5856 5856 5855 5854 5853 5853 5852 5851 5850 5849 5848 5846 5845 5844 5843 5842 5841 5840 5838 5838 5837 5836 5835 5835 5834 5832 5831
5890 5890 5890 5889 5889 5889 5890 5890 5889 5889 5888 5887 5886 5886 5886 5885 5884 5883 5882 5881 5881 5880 5879 5878 5878 5878 5877 5877 5876 5875 5874 5874 5874 5874 5873 5873 5872 5871 5870 5869 5868 5867 5866 5866 5865 5864 5864 5863 5863 5862 5861 5860 5858 5857 5856 5856 5856 5855 5855 5855 5854 5853 5853 5852 5852 5851 5850 5849 5847 5846 5844 5843 5842 5841 5840 5839 5838 5837 5836 5835 5834 5833 5832 5831 5830
5889 5889 5888 5887 5888 5889 5889 5888 5888 5887 5887 5886 5886 5885 5885 5884 5883 5882 5881 5881 5880 5879 5878 5877 5877 5877 5876 5876 5875 5874 5873 5873 5873 5873 5872 5872 5871 5870 5869 5868 5867 5867 5866 5865 5865 5864 5863 5863 5862 5862 5861 5860 5859 5858 5856 5855 5855 5855 5854 5854 5853 5853 5852 5852 5852 5851 5850 5848 5847 5845 5844 5843 5842 5841 5840 5838 5837 5836 5835 5834 5833 5832 5831 5830 5829
5887 5887 5886 5886 5887 5887 5887 5887 5886 5886 5885 5885 5885 5884 5884 5883 5882 5881 5880 5880 5879 5878 5877 5876 5876 5876 5876 5875 5874 5873 5872 5872 5872 5872 5871 5871 5870 5870 5869 5868 5867 5866 5865 5865 5864 5864 5863 5862 5862 5861 5861 5860 5859 5858 5857 5856 5855 5855 5854 5853 5852 5852 5852 5851 5851 5850 5849 5848 5846 5845 5843 5842 5841 5840 5839 5838 5837 5835 5834 5833 5832 5831 5830 5829 5828
5884 5884 5884 5884 5885 5886 5885 5885 5885 5884 5884 5884 5883 5883 5883 5882 5881 5880 5880 5879 5878 5877 5876 5875 5874 5874 5874 5874 5873 5872 5871 5871 5871 5871 5870 5870 5869 5869 5868 5867 5866 5866 5865 5864 5864 5863 5862 5861 5861 5860 5860 5860 5859 5858 5857 5856 5855 5854 5854 5853 5852 5851 5851 5850 5850 5850 5849 5847 5846 5845 5843 5842 5840 5839 5838 5837 5836 5835 5834 5833 5831 5830 5829 5828 5827
5882 5882 5882 5883 5883 5883 5883 5883 5883 5883 5882 5882 5882 5882 5881 5880 5880 5879 5879 5878 5877 5876 5875 5874 5873 5873 5873 5873 5872 5871 5870 5870 5870 5870 5869 5869 5868 5868 5867 5867 5866 5865 5864 5864 5863 5862 5862 5861 5860 5860 5859 5859 5858 5858 5857 5856 5855 5854 5853 5853 5852 5851 5850 5849 5849 5849 5848 5847 5846 5844 5843 5842 5840 5839 5838 5837 5836 5835 5833 5832 5831 5830 5829 5828 5827
5879 5879 5880 5881 5881 5881 5881 5881 5881 5881 5881 5881 5880 5880 5879 5879 5878 5878 5877 5876 5876 5875 5874 5873 5872 5871 5872 5871 5870 5869 5869 5869 5869 5869 5868 5868 5867 5867 5866 5866 5865 5864 5863 5863 5862 5862 5861 5860 5860 5859 5858 5858 5857 5857 5856 5855 5855 5854 5853 5852 5852 5851 5850 5849 5848 5848 5847 5846 5845 5844 5843 5841 5840 5839 5838 5837 5835 5834 5833 5832 5831 5829 5828 5827 5826
5877 5877 5878 5879 5879 5879 5879 5879 5879 5879 5879 5879 5878 5878 5878 5877 5877 5876 5876 5875 5874 5873 5872 5872 5870 5870 5870 5869 5868 5868 5867 5867 5867 5867 5867 5867 5866 5866 5865 5865 5864 5864 5863 5862 5862 5861 5860 5860 5859 5858 5857 5857 5856 5856 5856 5855 5854 5853 5853 5852 5851 5850 5849 5849 5848 5847 5846 5845 5844 5843 5842 5841 5839 5838 5837 5836 5835 5833 5832 5832 5830 5829 5828 5827 5826
5874 5875 5876 5877 5877 5877 5877 5877 5877 5877 5877 5877 5876 5876 5876 5875 5875 5874 5874 5873 5872 5872 5871 5870 5869 5868 5868 5868 5867 5866 5866 5866 5866 5866 5866 5866 5865 5865 5864 5864 5864 5863 5862 5861 5861 5860 5859 5859 5858 5857 5857 5856 5855 5855 5854 5854 5853 5853 5852 5851 5851 5850 5849 5848 5847 5847 5846 5845 5844 5843 5842 5840 5839 5838 5836 5835 5834 5833 5832 5831 5830 5829 5828 5826 5825
5872 5874 5874 5874 5874 5875 5875 5875 5874 5875 5875 5874 5874 5874 5874 5873 5873 5872 5872 5871 5871 5870 5870 5868 5867 5866 5866 5866 5865 5865 5865 5865 5865 5865 5865 5865 5864 5864 5863 5863 5863 5862 5861 5860 5859 5859 5859 5858 5857 5857 5856 5856 5855 5854 5853 5853 5852 5852 5851 5850 5850 5849 5848 5848 5847 5846 5845 5845 5844 5843 5841 5840 5839 5837 5836 5835 5833 5832 5832 5831 5830 5829 5827 5826 5825
5870 5871 5872 5872 5872 5872 5872 5872 5872 5872 5872 5872 5872 5872 5872 5871 5871 5870 5869 5869 5869 5868 5868 5867 5865 5864 5864 5864 5864 5863 5864 5864 5864 5864 5864 5864 5863 5863 5863 5862 5862 5861 5860 5859 5858 5858 5858 5857 5857 5856 5856 5855 5854 5853 5852 5852 5851 5851 5850 5850 5849 5848 5848 5847 5846 5846 5845 5844 5843 5842 5841 5839 5838 5837 5835 5834 5833 5832 5831 5830 5829 5828 5827 5825 5824
5868 5869 5869 5869 5870 5870 5870 5870 5870 5870 5870 5870 5870 5870 5870 5869 5869 5868 5867 5867 5867 5866 5866 5865 5863 5863 5862 5862 5862 5862 5862 5863 5863 5863 5863 5863 5863 5862 5862 5861 5860 5860 5859 5858 5857 5857 5856 5856 5855 5855 5854 5854 5853 5852 5851 5850 5850 5849 5849 5849 5848 5847 5847 5846 5846 5845 5844 5843 5842 5841 5840 5839 5837 5836 5835 5834 5832 5831 5830 5829 5828 5827 5826 5825 5824
5866 5866 5866 5867 5867 5867 5867 5867 5867 5868 5867 5867 5867 5867 5867 5867 5867 5866 5865 5865 5865 5865 5864 5863 5862 5861 5861 5861 5861 5861 5861 5861 5862 5862 5862 5862 5862 5861 5861 5860 5860 5859 5858 5857 5856 5856 5855 5855 5854 5854 5853 5852 5852 5851 5850 5849 5849 5848 5848 5847 5847 5846 5846 5845 5845 5844 5843 5842 5841 5840 5839 5838 5836 5835 5834 5833 5831 5830 5829 5828 5827 5826 5824 5823 5822
5864 5863 5863 5864 5864 5865 5864 5864 5865 5865 5865 5865 5865 5865 5865 5864 5864 5863 5863 5863 5863 5863 5862 5861 5860 5859 5859 5859 5859 5859 5860 5860 5860 5860 5860 5860 5860 5860 5860 5859 5859 5858 5857 5856 5855 5855 5854 5854 5853 5853 5852 5851 5850 5850 5849 5848 5848 5847 5847 5846 5845 5845 5844 5844 5844 5843 5842 5841 5840 5839 5838 5837 5835 5834 5833 5832 5830 5829 5828 5826 5826 5824 5823 5822 5821
5860 5860 5860 5861 5861 5862 5862 5862 5862 5862 5862 5862 5863 5863 5862 5862 5861 5861 5861 5860 5860 5860 5860 5859 5858 5858 5858 5858 5858 5858 5858 5859 5859 5859 5859 5859 5859 5859 5859 5858 5858 5857 5856 5855 5854 5854 5853 5853 5852 5851 5851 5850 5850 5849 5848 5847 5847 5846 5846 5845 5844 5844 5843 5843 5842 5842 5841 5840 5839 5838 5837 5836 5834 5833 5832 5831 5830 5828 5826 5825 5824 5823 5822 5821 5820
5856 5856 5857 5857 5858 5859 5859 5859 5859 5859 5860 5860 5860 5860 5860 5859 5859 5858 5858 5858 5858 5858 5857 5857 5856 5856 5857 5857 5856 5856 5857 5857 5857 5858 5858 5858 5858 5858 5857 5857 5856 5856 5855 5854 5853 5852 5852 5851 5851 5850 5849 5849 5849 5848 5847 5846 5846 5845 5845 5844 5843 5843 5843 5842 5841 5840 5840 5839 5838 5837 5835 5834 5833 5832 5831 5830 5829 5827 5825 5824 5823 5821 5820 5819 5818
5852 5852 5853 5854 5855 5856 5856 5856 5856 5857 5858 5858 5859 5858 5857 5857 5856 5856 5855 5855 5856 5855 5855 5855 5855 5855 5855 5855 5855 5855 5855 5855 5856 5856 5856 5856 5856 5856 5856 5856 5855 5855 5854 5853 5852 5851 5850 5850 5849 5848 5848 5847 5847 5846 5846 5845 5845 5844 5844 5843 5843 5842 5842 5841 5840 5839 5838 5837 5836 5835 5834 5833 5832 5831 5830 5829 5828 5826 5825 5823 5821 5820 5819 5817 5816
5848 5849 5850 5851 5853 5853 5853 5854 5855 5856 5856 5857 5857 5856 5855 5854 5853 5853 5853 5853 5853 5853 5853 5854 5853 5853 5853 5853 5853 5853 5853 5854 5854 5855 5855 5855 5855 5855 5855 5854 5854 5853 5853 5851 5850 5849 5849 5848 5847 5847 5846 5846 5846 5845 5844 5844 5844 5843 5843 5843 5842 5841 5841 5840 5839 5838 5837 5836 5835 5834 5833 5832 5831 5830 5829 5828 5827 5825 5824 5822 5820 5819 5817 5816 5815
5845 5846 5847 5849 5850 5851 5851 5852 5853 5854 5854 5854 5854 5853 5852 5851 5850 5850 5850 5850 5850 5850 5851 5851 5851 5851 5851 5851 5851 5851 5851 5852 5853 5853 5853 5853 5853 5853 5853 5852 5852 5852 5851 5850 5849 5848 5848 5847 5846 5845 5844 5844 5844 5844 5843 5842 5842 5842 5842 5841 5840 5840 5839 5838 5837 5837 5836 5835 5834 5833 5832 5831 5830 5829 5828 5827 5825 5824 5822 5821 5820 5818 5817 5815 5814
5843 5844 5845 5847 5848 5848 5848 5849 5850 5850 5851 5850 5850 5849 5849 5848 5848 5848 5848 5848 5848 5848 5849 5849 5848 5848 5849 5849 5849 5849 5850 5850 5851 5851 5851 5851 5851 5851 5851 5851 5850 5850 5849 5848 5847 5847 5846 5846 5844 5843 5843 5842 5842 5842 5841 5840 5840 5840 5839 5839 5838 5838 5837 5837 5836 5835 5835 5834 5833 5832 5830 5829 5829 5828 5827 5826 5824 5822 5821 5819 5818 5817 5816 5814 5813
5841 5842 5844 5845 5845 5845 5845 5846 5847 5847 5847 5847 5847 5847 5847 5846 5846 5845 5846 5846 5846 5846 5847 5846 5846 5846 5846 5847 5847 5847 5848 5848 5849 5849 5849 5850 5849 5849 5849 5848 5848 5848 5847 5847 5846 5846 5845 5844 5843 5842 5841 5841 5841 5840 5840 5839 5838 5838 5838 5837 5837 5837 5836 5835 5834 5834 5833 5832 5831 5830 5829 5828 5828 5827 5826 5824 5823 5821 5819 5818 5816 5815 5814 5813 5811
5839 5840 5842 5842 5841 5841 5842 5844 5844 5844 5844 5845 5845 5845 5844 5844 5843 5843 5843 5843 5843 5844 5844 5844 5843 5843 5844 5844 5845 5845 5845 5846 5847 5847 5847 5847 5847 5847 5846 5846 5846 5846 5846 5845 5845 5845 5844 5843 5842 5841 5840 5839 5839 5839 5838 5837 5836 5836 5836 5836 5836 5835 5834 5833 5832 5832 5831 5830 5830 5828 5827 5827 5826 5825 5824 5823 5821 5820 5818 5816 5815 5814 5812 5811 5810
5837 5839 5839 5838 5838 5839 5841 5841 5841 5841 5841 5842 5842 5842 5842 5841 5841 5840 5840 5841 5841 5841 5841 5841 5841 5841 5842 5842 5842 5843 5843 5843 5844 5844 5845 5845 5845 5844 5844 5844 5844 5844 5844 5844 5844 5843 5842 5841 5840 5839 5838 5838 5837 5837 5837 5836 5835 5835 5835 5835 5834 5834 5833 5832 5831 5830 5830 5829 5828 5827 5826 5825 5825 5824 5823 5821 5820 5818 5817 5815 5814 5812 5811 5810 5808
5835 5835 5835 5835 5836 5837 5838 5837 5837 5838 5838 5839 5839 5839 5839 5839 5838 5838 5838 5838 5839 5839 5839 5839 5839 5839 5840 5840 5840 5840 5840 5841 5841 5841 5842 5843 5842 5842 5842 5842 5842 5843 5843 5843 5842 5842 5841 5840 5839 5837 5837 5836 5836 5836 5835 5834 5834 5834 5834 5833 5833 5832 5831 5830 5829 5829 5828 5827 5826 5825 5825 5824 5823 5822 5821 5820 5818 5817 5815 5814 5812 5810 5809 5807 5806
5831 5831 5832 5833 5834 5835 5834 5834 5834 5834 5834 5835 5836 5836 5836 5835 5835 5835 5835 5835 5836 5837 5837 5837 5837 5837 5838 5838 5838 5838 5838 5838 5838 5839 5840 5840 5840 5839 5840 5841 5841 5841 5841 5841 5840 5839 5839 5838 5837 5836 5835 5835 5834 5834 5834 5833 5832 5832 5833 5833 5832 5831 5830 5829 5828 5827 5826 5826 5825 5824 5823 5822 5821 5821 5819 5818 5816 5815 5813 5812 5811 5809 5807 5805 5804
5827 5828 5829 5831 5832 5831 5831 5830 5830 5830 5831 5831 5832 5832 5832 5832 5832 5832 5832 5832 5833 5834 5834 5835 5835 5836 5836 5836 5836 5836 5836 5836 5836 5836 5837 5837 5837 5837 5838 5839 5839 5839 5839 5839 5838 5837 5837 5836 5835 5835 5834 5833 5833 5833 5832 5832 5831 5831 5831 5831 5830 5829 5828 5827 5826 5826 5825 5824 5823 5822 5821 5820 5819 5818 5817 5815 5814 5812 5811 5810 5809 5807 5805 5803 5801
5824 5825 5827 5829 5828 5827 5827 5826 5826 5826 5827 5828 5828 5829 5829 5828 5828 5828 5828 5828 5829 5830 5830 5832 5833 5834 5834 5834 5834 5834 5834 5833 5834 5834 5835 5835 5835 5835 5836 5837 5837 5837 5837 5837 5836 5835 5835 5835 5834 5833 5832 5832 5832 5831 5831 5830 5830 5829 5829 5829 5829 5828 5827 5826 5824 5824 5823 5822 5821 5820 5819 5818 5817 5816 5814 5813 5811 5810 5809 5808 5806 5805 5803 5801 5799
5822 5823 5825 5824 5824 5823 5821 5820 5821 5822 5824 5825 5826 5826 5826 5825 5824 5824 5824 5824 5825 5826 5827 5828 5830 5831 5831 5831 5832 5832 5832 5832 5832 5832 5832 5832 5832 5833 5834 5834 5835 5835 5835 5834 5834 5834 5834 5833 5833 5832 5831 5831 5830 5830 5829 5829 5829 5828 5828 5827 5827 5826 5825 5824 5823 5822 5821 5821 5819 5818 5817 5816 5814 5813 5812 5810 5808 5807 5806 5805 5803 5802 5801 5799 5797
5819 5820 5821 5821 5820 5817 5814 5816 5820 5823 5824 5825 5825 5825 5824 5823 5822 5822 5821 5821 5822 5823 5824 5826 5827 5828 5828 5828 5829 5830 5830 5830 5830 5830 5830 5830 5831 5831 5832 5832 5833 5833 5832 5832 5832 5832 5832 5832 5831 5830 5830 5829 5829 5829 5828 5828 5827 5827 5826 5825 5825 5824 5823 5823 5822 5821 5819 5818 5817 5815 5814 5813 5812 5810 5809 5807 5805 5804 5803 5802 5800 5799 5797 5795 5794
5817 5817 5816 5816 5813 5810 5813 5819 5823 5824 5825 5824 5823 5823 5822 5820 5820 5819 5818 5818 5819 5820 5821 5823 5824 5825 5825 5825 5826 5827 5827 5828 5828 5828 5828 5828 5829 5829 5830 5830 5831 5831 5830 5830 5830 5831 5831 5830 5830 5829 5828 5827 5827 5827 5827 5826 5826 5825 5824 5823 5823 5822 5821 5820 5819 5818 5817 5816 5814 5813 5811 5810 5808 5807 5806 5804 5803 5801 5800 5798 5797 5795 5794 5792 5790
5813 5812 5811 5811 5809 5811 5818 5821 5820 5820 5820 5819 5818 5818 5817 5817 5817 5816 5815 5815 5815 5816 5817 5819 5821 5821 5822 5823 5824 5824 5825 5825 5825 5825 5825 5826 5827 5827 5827 5828 5829 5828 5828 5828 5829 5829 5829 5829 5828 5827 5827 5826 5826 5825 5825 5825 5824 5824 5823 5822 5821 5820 5819 5818 5817 5816 5814 5813 5812 5810 5808 5807 5806 5804 5803 5802 5801 5799 5797 5795 5793 5792 5790 5788 5786
5809 5808 5808 5809 5810 5813 5818 5817 5815 5815 5815 5814 5813 5812 5812 5813 5813 5813 5813 5812 5812 5812 5813 5815 5817 5818 5819 5820 5821 5822 5822 5822 5822 5822 5823 5824 5825 5825 5826 5826 5826 5826 5826 5827 5827 5827 5827 5827 5826 5826 5825 5825 5824 5824 5824 5823 5823 5822 5821 5820 5819 5818 5817 5816 5815 5813 5812 5810 5809 5807 5805 5804 5804 5802 5801 5799 5798 5796 5794 5792 5790 5788 5786 5784 5782
5805 5805 5807 5809 5809 5810 5812 5812 5813 5813 5812 5811 5810 5809 5809 5809 5811 5811 5811 5811 5811 5810 5811 5812 5814 5815 5817 5817 5818 5819 5819 5819 5819 5819 5820 5821 5823 5823 5824 5824 5824 5824 5825 5825 5825 5825 5825 5825 5824 5824 5824 5823 5823 5822 5822 5822 5821 5821 5820 5819 5818 5817 5816 5815 5813 5812 5810 5808 5807 5805 5803 5801 5800 5799 5798 5796 5794 5792 5790 5789 5786 5784 5782 5780 5778
5802 5803 5805 5806 5805 5807 5810 5811 5811 5811 5811 5809 5808 5808 5807 5807 5809 5809 5809 5809 5809 5809 5809 5809 5811 5812 5814 5814 5814 5815 5815 5816 5816 5817 5818 5819 5821 5822 5822 5822 5823 5823 5823 5823 5823 5823 5823 5823 5823 5823 5822 5822 5822 5821 5821 5820 5819 5819 5818 5817 5816 5815 5814 5813 5812 5811 5809 5807 5805 5803 5801 5799 5796 5795 5793 5791 5790 5787 5785 5783 5781 5780 5778 5776 5774
5800 5801 5802 5803 5803 5806 5809 5809 5809 5809 5809 5808 5806 5806 5805 5805 5806 5806 5806 5806 5806 5806 5806 5807 5808 5809 5811 5811 5811 5812 5813 5814 5815 5816 5816 5817 5819 5820 5820 5821 5821 5821 5821 5822 5822 5822 5821 5821 5821 5821 5821 5821 5820 5820 5819 5818 5818 5817 5816 5815 5814 5813 5812 5811 5810 5809 5807 5805 5803 5801 5799 5797 5795 5793 5791 5789 5786 5784 5782 5779 5777 5775 5773 5770 5768
5797 5798 5799 5801 5802 5804 5806 5806 5806 5806 5805 5804 5803 5804 5804 5802 5802 5802 5802 5802 5802 5802 5803 5804 5805 5806 5807 5808 5808 5810 5812 5813 5814 5814 5814 5816 5817 5818 5818 5819 5819 5819 5820 5820 5820 5820 5820 5820 5820 5820 5819 5819 5818 5818 5817 5817 5816 5815 5814 5813 5812 5811 5810 5809 5808 5806 5805 5803 5801 5799 5797 5795 5793 5791 5789 5787 5785 5782 5780 5778 5775 5772 5770 5767 5764